www.pogodaiklimat.ru

Погода и климат >> Архив погоды >> Казахстан >> Астана


АРХИВ ПОГОДЫ в Астане

Время (UTC), дата Ветер
(напр.,м/с)
 
Видим.   Явления Облачность Т
(С)
Тd
(С)
f
(%)
Тe
(С)
Тes
(С)
Комфортность P
(гПа)
Po
(гПа)
Тmin
(С)
Tmax
(С)
R
(мм)
R24
(мм)
S
(см)
18 11.10 ЮЗ 4 н/о 10/0
[Ci fib]
+11.0 -2.2 40 +9 +9 тепло 1009.4 968.1 +16.7
21 11.10 Ю 4 н/о 10/0
[Ac lent]
+10.3 -1.9 42 +8 +8 тепло 1007.2 965.9
00 12.10 Ю 4 н/о 10/10 1000 м
[Sc]
+9.1 -1.0 49 +7 +7 тепло 1005.8 964.4
03 12.10 Ю 3 10 км 10/10 1000 м
[Sc]
+8.9 -1.2 49 +7 +7 тепло 1005.0 963.6
06 12.10 Ю 3 4000 м слабый ливневой дождь 10/10 1000 м
[Cb cap]
+8.3 +2.5 67 +6 +6 по сезону 1005.0 963.6 +8.7
09 12.10 Ю 3 4000 м слабый ливневой дождь 10/10 300 м
[Cb cap]
+6.1 +4.7 91 +3 +3 прохладно 1004.3 962.6
12 12.10 З 1 4000 м слабый ливневой дождь 10/10 300 м
[Cb cap]
+4.9 +4.2 95 +3 +3 прохладно 1003.8 961.9
15 12.10 СЗ 2 н/о в посл. час ливневой дождь 10/10 1000 м
[Cb cap]
+4.1 +2.9 92 +1 +1 прохладно 1004.3 962.3 +9.3
18 12.10 СЗ 2 н/о {ливн. осадки} 10/10 1000 м
[Sc]
+2.0 +0.1 87 -1 -1 по сезону 1005.7 963.3 +9.3 8
21 12.10 С 2 н/о 10/10 1000 м
[Sc]
+1.5 -0.4 87 -2 -2 по сезону 1005.5 963.0
00 13.10 штиль 0 н/о 10/10 1000 м
[Sc]
+1.4 -0.5 87 0 0 по сезону 1005.5 963.0
03 13.10 С 1 10 км 10/10 1000 м
[Sc]
+1.1 -0.5 89 -1 -1 прохладно 1005.7 963.2
06 13.10 З 1 10 км 10/8 1000 м
[Sc Ac As Ci]
+4.0 -1.1 69 +3 +3 по сезону 1006.1 964.0 +1.1
09 13.10 З 2 10 км 10/6 1000 м
[Sc Ac As Ci]
+5.3 -1.3 62 +3 +4 прохладно 1006.4 964.4
12 13.10 З 2 4000 м слабый ливневой дождь 10/10 300 м
[Cb cap]
+1.4 +0.1 91 -2 -2 очень
холодно
1008.7 966.1
15 13.10 З 1 н/о слабый ливневой снег 10/10 300 м
[Cb cap]
+0.1 -1.0 92 -2 -2 холодно 1010.8 967.9 +6.9
18 13.10 З 1 н/о {ливн. осадки} ясно -2.0 -4.1 86 -4 -4 прохладно 1012.8 969.5 +6.9 2
21 13.10 З 1 н/о ясно -3.5 -4.9 90 -6 -6 холодно 1015.0 971.3
00 14.10 З 1 н/о 10/10 300 м
[St]
-2.8 -3.5 95 -5 -5 прохладно 1016.0 972.4
03 14.10 ЮЗ 1 10 км {ливн. осадки} 10/10 600 м
[Cb cap]
-1.5 -3.8 84 -4 -4 холодно 1017.2 973.7 1
06 14.10 Ю 2 4000 м слабый ливневой снег 9/9 300 м
[Cb cap]
-0.1 -3.8 76 -4 -3 очень
холодно
1018.3 975.0 -4.1 0.1
09 14.10 Ю 2 10 км в посл. час ливневой снег 8/8 600 м
[Cb cap]
+0.5 -1.5 86 -3 -2 очень
холодно
1018.4 975.2
12 14.10 Ю 2 10 км в посл. час ливневой снег 3/3 1000 м
[Cb cap]
+0.1 -1.6 88 -4 -3 очень
холодно
1019.1 975.8
15 14.10 Ю 3 н/о 4/4 300 м
[St]
-0.5 -1.7 92 -5 -5 очень
холодно
1019.5 976.1 +1.6
18 14.10 Ю 2 н/о ясно -1.8 -3.2 90 -6 -6 холодно 1019.4 975.8 +1.6 1
21 14.10 Ю 2 н/о ясно -2.7 -4.3 89 -7 -7 холодно 1018.9 975.2
00 15.10 Ю 2 н/о ясно -3.1 -7.3 73 -7 -7 холодно 1018.0 974.2
03 15.10 Ю 1 4000 м в посл. час снег 10/10 200 м
[St]
-2.6 -2.6 100 -5 -5 холодно 1017.5 973.9 1
06 15.10 СВ 2 10 км {снег, туман} 10/8 600 м
[Cb cap Ci ing]
+1.9 -0.8 82 -1 -1 холодно 1014.7 971.9 -3.1 0.0
09 15.10 СВ 2 4000 м слабый ливневой снег 10/10 600 м
[Cb cap]
+1.1 +0.3 94 -3 -3 очень
холодно
1012.5 969.7
12 15.10 СВ 3 4000 м слабый ливневой дождь со снегом 10/10 600 м
[Cb cap]
+0.8 +0.5 98 -4 -4 очень
холодно
1011.7 968.9
15 15.10 С 4 н/о слабый ливневой дождь со снегом 10/10 600 м
[Cb cap]
+0.5 +0.2 98 -5 -5 очень
холодно
1010.5 967.7 +2.0
18 15.10 СВ 4 н/о слабый ливневой дождь со снегом 10/10 300 м
[Cb cap]
+0.5 +0.5 100 -5 -5 холодно 1009.2 966.4 +2.0 4
21 15.10 СВ 4 н/о слабый снег {ливн. осадки} 10/0
[As op]
+0.4 +0.1 98 -5 -5 прохладно 1008.8 966.0
00 16.10 С 3 н/о слабый снег {ливн. осадки} 10/10 300 м
[Frnb Ns]
0.0 -0.3 98 -5 -5 прохладно 1009.6 966.7
03 16.10 С 3 4000 м слабый снег 10/10 200 м
[Frnb Ns]
-0.1 -0.1 100 -5 -5 холодно 1011.7 968.7 3
06 16.10 З 4 4000 м слабый снег 10/10 200 м
[Frnb Ns]
+0.1 -0.5 96 -6 -6 очень
холодно
1013.8 970.8 -0.1 4
09 16.10 С 4 4000 м слабый снег 10/10 200 м
[Frnb Ns]
-0.1 -0.7 96 -6 -6 очень
холодно
1015.4 972.3
12 16.10 СВ 4 4000 м слабый снег 10/10 200 м
[Frnb Ns]
-0.1 -0.4 98 -6 -6 очень
холодно
1017.9 974.7
15 16.10 СВ 4 н/о слабый снег 10/10 200 м
[Frnb Ns]
+0.1 -0.2 98 -6 -6 очень
холодно
1020.3 977.0 +0.3
18 16.10 С 3 н/о {снег} 10/10 1000 м
[Sc]
-0.5 -2.6 86 -5 -5 холодно 1022.3 978.8 +0.3 5
21 16.10 С 2 н/о ясно -3.3 -4.6 91 -7 -7 холодно 1023.8 979.8
00 17.10 З 2 н/о 10/10 1000 м
[Sc]
-2.9 -3.5 96 -7 -7 прохладно 1025.9 981.9
03 17.10 З 1 10 км 10/10 200 м
[St]
-3.5 -4.3 94 -6 -6 холодно 1027.6 983.4 6
06 17.10 ЮЗ 3 10 км 8/3 600 м
[Cu hum Cc]
+0.1 -3.4 77 -4 -2 холодно 1025.9 982.3 -3.5 0.0
09 17.10 Ю 4 10 км 10/3 300 м
[St Ac As]
-0.4 -4.4 74 -6 -5 очень
холодно
1023.9 980.3
12 17.10 ЮВ 5
{15}
4000 м слабый ливневой снег 10/10 300 м
[Cb cap]
-0.5 -2.9 84 -7 -7 очень
холодно
1021.4 977.9
15 17.10 Ю 6-16
{17}
н/о снег {ливн. осадки} 10/9 200 м
[Frnb As op]
-0.7 -1.9 92 -8 -8 очень
холодно
1018.3 974.9 +0.4
18 17.10 Ю 7-16
{18}
н/о снег {ливн. осадки, метель} 10/9 200 м
[Frnb As op]
-0.4 -1.9 90 -8 -8 очень
холодно
1013.8 970.7 +0.4 0.8
21 17.10 Ю 6
{17}
н/о {ливн. осадки} 10/10 600 м
[Cb cap]
+0.9 -1.4 85 -5 -5 прохладно 1008.7 966.0
00 18.10 ЮЗ 5
{15}
н/о {ливн. осадки, снег} 10/10 1000 м
[Sc]
+2.4 +1.4 93 -3 -3 по сезону 1005.4 963.1
03 18.10 Ю 4
{16}
4000 м слабый ливневой дождь 10/10 300 м
[Cb cap]
+2.0 +0.7 91 -3 -3 прохладно 1003.9 961.6 2
06 18.10 ЮЗ 3 2000 м слабый ливневой снег 10/10 300 м
[Cb cap]
+0.8 +0.8 100 -4 -4 холодно 1004.7 962.2 -0.7 4
09 18.10 З 2 10 км {ливн. осадки} 10/8 300 м
[Cb cap Ac und]
+2.3 -1.9 74 -1 -1 прохладно 1006.3 963.9
12 18.10 ЮЗ 3 4000 м слабый ливневой снег 10/10 300 м
[Cb cap]
+1.0 -0.7 88 -4 -4 очень
холодно
1008.4 965.7

 

Местоположение метеостанции Астана (город Астана, Казахстан): широта 51.13 долгота 71.37 высота над уровнем моря 350 м.

В архиве по умолчанию представлена погода в Астане за последнюю неделю. Архивные данные за месяц целиком и за предыдущие месяцы, начиная с января 2011 года, Вы можете получить, выбрав интересующий диапазон дат из раскрывающегося списка и нажав кнопку "Ввод!".


*Определитесь, кто Вы:
робот инопланетянин человек

Внимание! Время в таблицах - всемирное. Для получения местного времени необходимо прибавить поправку, которая в Астане равна 6 ч.

Смотрите также архив погоды в соседних городах и на ближайших метеорологических станциях:

Погода в Астане 2 (город Астана, Казахстан) (4 км)
Погода в Арнасае (Акмолинская область, Казахстан) (51 км)
Погода в Шортанды (Акмолинская область, Казахстан) (65 км)
Погода в Аршалы (Акмолинская область, Казахстан) (73 км)
Погода в Новомарковке (Акмолинская область, Казахстан) (92 км)
Погода в Киевке (Карагандинская область, Казахстан) (99 км)
Погода в Акколе (Акмолинская область, Казахстан) (101 км)
Погода в Осакаровке (Карагандинская область, Казахстан) (105 км)
Погода в Кургальджин (Акмолинская область, Казахстан) (114 км)
Погода в Жалтыре (Акмолинская область, Казахстан) (122 км)

Пояснения к столбцам:

Ветер - указаны скорость ветра в м/с - средняя за 10 мин, порывы в срок и между сроками (в фигурных скобках) и направление, откуда дует ветер: С - северный, СВ - северо-восточный, В - восточный, ЮВ - юго-восточный, Ю - южный, ЮЗ - юго-западный, З - западный, СЗ - северо-западный.
Видимость - горизонтальная дальность видимости в метрах или километрах. При видимости от 1 до 10 км при отсутствии осадков обычно наблюдается дымка, при ухудшении видимости до 1 км и менее - туман. В сухую погоду видимость может ухудшаться дымом, пылью или мглою.
Явления - указаны атмосферные явления, наблюдавшиеся в срок или в последний час перед сроком; фигурными скобками обозначены явления, наблюдавшиеся между сроками (за 1-3 часа до срока); квадратными скобками обозначены град или гололедные отложения с указанием их диаметра в мм.
Облачность - указаны через наклонную черту общая и нижняя облачность в баллах и высота нижней границы облаков в метрах; квадратными скобками обозначены формы облаков: Ci - перистые, Cs - перисто-слоистые, Cc - перисто-кучевые, Ac - высококучевые, As - высокослоистые, Sc - слоисто-кучевые, Ns - слоисто-дождевые, Cu - кучевые, Cb - кучево-дождевые. Подробнее классификацию облаков см. в Атласе облаков (PDF).
T - Температура воздуха - температура, измеренная на высоте 2 м над землей.
Td - Температура точки росы - температура, при понижении до которой содержащийся в воздухе водяной пар достигнет насыщения.
f - Относительная влажность воздуха - влажноcть воздуха, измеренная на высоте 2 м над землей.
Te - Эффективная температура - температура, которую ощущает одетый по сезону человек в тени. Характеристика душности погоды. При расчете учитывается влияние влажности воздуха и скорости ветра на теплоощущения человека.
Tes - Эффективная температура на солнце - температура, которую ощущает человек, с поправкой на солнечный нагрев. Характеристика знойности погоды. Зависит от высоты солнца над горизонтом, облачности и скорости ветра. Ночью, в пасмурную погоду, а также при ветре 12 м/с и более поправка равна нулю.
P - Атмосферное давление - приведенное к уровню моря атмосферное давление.
Po - Атмосферное давление - измеренное на уровне метеостанции атмосферное давление.
Tmin - Минимальная температура - минимум температуры воздуха на высоте 2 м над землей.
Tmax - Максимальная температура - максимум температуры воздуха на высоте 2 м над землей.
R - Количество осадков - Количество выпавших осадков за период времени, мм. При наведении курсора мыши на число - период времени, за который выпало указанное количество осадков.
R24 - Количество осадков - Количество выпавших осадков за 24 часа, мм.
S - Снежный покров - Высота снежного покрова, см. При наведении курсора мыши на число - состояние снежного покрова и степень покрытия местности в баллах.